OSCAR 30

Last updated on Fri Jun 19 2026 20:04:44 GMT+0000 (Coordinated Universal Time)

1 15935U 85066A 26170.56034765 .00000077 00000+0 12572-3 0 9993 2 15935 90.1570 102.7905 0165651 271.0497 265.1639 13.36112006989747
UTC large
Height (km)
Speed (km/s)
/
Latitude / Longitude
Inclination (degrees)
Orbital Period (minutes)
Azimuth
Elevation
Range (km)
Doppler Factor

Next 0 passes for location: London (51.5072 / 0.1276)

Sorry there are no passes over London.
OSCAR 30